User: anonymous
Location: Lawrence
(38.9720°N, 95.2350°W)
Time: 12:20:47
(UTC-05:00)
Language:

JAS-1B - Orbit

View from above orbital plane
View from above orbital plane
View from above satellite
View from above satellite

Ground track
Ground track

The orbit data is extracted from the following two-line orbital elements,

1 20480U 90013C   14234.47758425 -.00000035  00000-0 -41206-5 0  8169
2 20480 099.0513 185.1684 0540166 203.5659 277.2813 12.83394938149631
Epoch (UTC): 22 August 2014 11:27:43
Eccentricity: 0.0540166
inclination: 99.0513°
perigee height: 911 km
apogee height: 1744 km
right ascension of ascending node: 185.1684°
argument of perigee: 203.5659°
revolutions per day: 12.83394938
mean anomaly at epoch: 277.2813°
orbit number at epoch: 14963

The dashed part of the orbit path shows where the satellite is in the earth's shadow,  

DLR